Volver al catálogo

STARLINK-5933

ActivoComunicacionesVLEO
NORAD 55961·PAYLOAD·🇺🇸 United States

Lanzado Mar 17, 2023 desde Vandenberg Space Force Base

Loading…

Próximos Pases (próximas 24 horas)

TLE

ActualizadoSource: CelesTrak SupGP

Época: Sep 14, 2026, 20:45 UTC

1 55961C 23037AZ  26257.86506944 -.00037399  00000+0 -31349-2 0  2576
2 55961  70.0011 147.3912 0002826 270.7239  31.0000 14.98341895    19

Sigue STARLINK-5933 en tiempo real con AllMySat

Download on the App Store